Zurück zum Katalog

KINEIS-2A

AktivKommunikationSSO
NORAD 62932·PAYLOAD·🇫🇷 France

Gestartet Feb 8, 2025 von Rocket Lab Launch Complex 1

Loading…

Nächste Überflüge (nächste 24 Stunden)

TLE

AktuellSource: Space-Track

Epoche: Sep 14, 2026, 09:26 UTC

1 62932U 25028E   26257.39311088  .00000876  00000-0  14251-3 0  9991
2 62932  98.1217 312.9089 0003491 230.1866 129.9035 14.73566610 85749

Verfolge KINEIS-2A in Echtzeit mit AllMySat

Download on the App Store